Home   Weather   Accra   Past weeks

Flag for Ghana Past Weather in Accra, Ghana — Yesterday and Last 2 Weeks

Now
90 °F

Haze.


Feels Like: 95 °F
Forecast: 78 / 87 °F
Wind: 9 mph from West

Location: Accra Airport

Current Time: Jan 17, 2017 at 1:16:36 pm

Latest Report: Jan 17, 2017 at 12:00 pm


Visibility: 3 mi

Pressure: 29.80 "Hg

Humidity: 52%

Dew Point: 70 °F

Location of AccraLocation

Past Weather in Accra — Graph

°F

Accra Temperature Yesterday

Maximum temperature yesterday: 90 °F (at 1:00 pm)
Minimum temperature yesterday: 75 °F (at 3:00 am)
Average temperature yesterday: 81 °F

High & Low Weather Summary for the Past Weeks

 TemperatureHumidityPressure
High95 °F (Jan 8, 1:00 pm)94% (Jan 3, 3:00 am)29.92 "Hg (Jan 3, 3:00 am)
Low75 °F (Jan 16, 3:00 am)25% (Jan 15, 11:00 am)29.71 "Hg (Jan 5, 4:00 pm)
Average83 °F77%29.82 "Hg
* Reported Jan 2 12:00 pm — Jan 17 12:00 pm, Accra, Weather by CustomWeather, © 2017

Note: Actual official high and low records may vary slightly from our data, if they occured in-between our weather recording intervals... More about our weather records

Advertising

Accra Weather History for the Previous 24 Hours

Scroll right to see more
 ConditionsComfort  
Time TempWeatherWind HumidityBarometerVisibility
12:00 pm
Tue, Jan 17
90 °FHaze.9 mph52%29.80 "Hg3 mi
11:00 am88 °FHaze.13 mph55%29.80 "Hg3 mi
10:00 am84 °FHaze.13 mph66%29.83 "Hg3 mi
9:00 am82 °FHaze.12 mph70%29.83 "Hg3 mi
8:00 am79 °FFog.9 mph79%29.83 "Hg3 mi
3:00 am77 °FClear.7 mph83%29.80 "Hg4 mi
2:00 am77 °FClear.7 mph83%29.80 "Hg4 mi
1:00 am79 °FClear.7 mph79%29.80 "Hg4 mi
12:00 am81 °FClear.8 mph74%29.83 "Hg4 mi
11:00 pm
Mon, Jan 16
81 °FClear.7 mph74%29.83 "Hg4 mi
10:00 pm81 °FClear.7 mph79%29.83 "Hg4 mi
9:00 pm82 °FClear.8 mph79%29.83 "Hg4 mi
8:00 pm82 °FClear.12 mph74%29.80 "Hg4 mi
7:00 pm82 °FHaze.12 mph79%29.77 "Hg3 mi
6:00 pm84 °FHaze.12 mph66%29.77 "Hg3 mi
5:00 pm84 °FHaze.12 mph66%29.74 "Hg3 mi
4:00 pm84 °FHaze.13 mph70%29.74 "Hg3 mi
3:00 pm88 °FHaze.10 mph59%29.74 "Hg3 mi
2:00 pm88 °FHaze.13 mph62%29.74 "Hg3 mi
1:00 pm90 °FHaze.7 mph59%29.77 "Hg3 mi
Weather by CustomWeather, © 2017

See weather overviewHow to use our weather pages